www.pogodaiklimat.ru

Погода и климат >> Архив погоды >> Россия >> Якутия >> Усть-Чаркы


ПОГОДА в Усть-Чарках

  • Прогноз погоды в Усть-Чарках
  • Монитор погоды в Усть-Чарках
  • Климат города

АРХИВ ПОГОДЫ в Усть-Чарках

Время (UTC), дата Ветер
(напр.,м/с)
 
Видим.   Явления Облачность Т
(С)
Тd
(С)
f
(%)
Тe
(С)
Тes
(С)
Комфортность P
(гПа)
Po
(гПа)
Тmin
(С)
Tmax
(С)
R
(мм)
R24
(мм)
S
(см)
06 17.06 З 2 50 км 8/6 1000 м
[Cu hum Ac As]
+15.9 +8.0 59 +16 +18 1003.8 972.0
09 17.06 штиль 0 50 км в посл. час ливневой дождь 10/10 600 м
[Cb cap]
+11.8 +9.8 88 +11 +11 1004.5 972.2 +17.1 0.8
12 17.06 штиль 0 50 км {ливн. осадки} 9/9 600 м
[Cb cap Ci fib]
+13.1 +10.2 83 +13 +13 1004.3 972.3
15 17.06 50 км н/о +8.2 +7.4 95 +7 +7 1005.2 972.5
18 17.06 штиль 0 50 км {ливн. осадки} 9/9 300 м
[Cb cap]
+8.7 +8.3 97 +8 +8 1005.9 973.3
21 17.06 штиль 0 50 км 10/10 300 м
[Cb cap]
+9.0 +9.0 100 +8 +8 1006.6 974.0 +8.0 1
00 18.06 штиль 0 50 км 10/3 1000 м
[Sc Ac und]
+14.1 +10.7 80 +14 +16 1005.9 974.0
03 18.06 штиль 0 50 км 10/8 1000 м
[Sc Ac trans Ci fib]
+19.9 +10.1 53 +21 +23 комфорт 1005.0 973.6
06 18.06 В 1 20 км в посл. час гроза {ливн. осадки} 10/10 600 м
[Cb cap]
+16.0 +14.1 88 +17 +17 1006.4 974.6
09 18.06 штиль 0 50 км {гроза, ливн. осадки} 8/5 600 м
[Cb cap Ac trans Ci fib]
+16.1 +12.1 77 +16 +17 1007.0 975.2 +22.4 0.9
12 18.06 штиль 0 50 км {гроза, ливн. осадки} 10/0
[Ac cast Ci fib]
+15.1 +12.8 86 +15 +15 1007.3 975.4
15 18.06 штиль 0 50 км 6/3 1000 м
[Cu med, cong Ac trans Ci fib]
+7.5 +7.5 100 +6 +6 1009.4 976.6
18 18.06 штиль 0 50 км 6/3 1000 м
[Cu med, cong Ac trans Ci fib]
+5.0 +5.0 100 +4 +4 1011.1 977.8
21 18.06 штиль 0 50 км 3/3 1000 м
[Cu med, cong Ac trans]
+13.7 +9.0 73 +13 +16 1010.0 977.8 +4.1
00 19.06 СВ 1 50 км ясно +20.0 +10.2 53 +22 +33 комфорт 1009.1 977.5
03 19.06 ЮВ 1 50 км 3/3 1000 м
[Cu hum]
+23.7 +8.4 38 +24 +34 комфорт 1007.7 976.6
06 19.06 В 2 50 км 9/4 600 м
[Cb cap Ac trans]
+25.6 +7.6 32 +26 +28 жарко 1006.2 975.4
09 19.06 С 2 50 км 8/4 600 м
[Cb cap Ac trans]
+23.7 +9.4 40 +25 +26 комфорт 1006.6 975.5 +26.3
12 19.06 З 2 50 км 4/0
[Ac trans Ci sp]
+19.8 +9.0 50 +21 +22 комфорт 1006.8 975.3
15 19.06 ЮВ 1 50 км 3/0
[Ac trans]
+11.4 +9.2 86 +11 +11 1007.6 975.2
18 19.06 штиль 0 50 км 3/3 1000 м
[Sc Ci fib]
+5.0 +4.3 95 +4 +4 1008.9 975.7
21 19.06 ЮВ 1 50 км 6/0
[Ac trans]
+15.2 +9.4 68 +16 +18 1007.6 975.6 +5.0
00 20.06 штиль 0 50 км 6/0
[Ac trans Cc]
+19.7 +10.3 55 +21 +29 комфорт 1006.7 975.2
03 20.06 С 1 50 км 3/3 600 м
[Cb calv]
+25.6 +11.1 40 +27 +36 жарко 1003.3 972.6
06 20.06 СЗ 3 50 км в посл. час гроза 4/4 600 м
[Cb calv]
+26.1 +8.6 33 +26 +31 жарко 1002.8 972.1
09 20.06 СЗ 5 50 км гроза без осадков 8/8 600 м
[Cb cap]
+23.6 +9.2 40 +24 +25 комфорт 1002.2 971.3 +29.0
12 20.06 штиль 0 50 км {гроза, ливн. осадки} 6/5 600 м
[Cb cap Ac trans]
+18.5 +11.6 64 +19 +19 1003.7 972.2
15 20.06 штиль 0 50 км 6/3 1000 м
[Sc Ac trans]
+10.1 +8.9 92 +9 +9 1005.1 972.6
18 20.06 штиль 0 50 км 4/4 1000 м
[Sc]
+6.2 +5.8 97 +5 +5 1006.3 973.3
21 20.06 ЮВ 1 50 км 8/3 1000 м
[Sc Ac trans]
+11.8 +7.9 77 +12 +13 1006.3 974.0 +5.5 0.7
00 21.06 штиль 0 50 км 3/3 1000 м
[Cu hum]
+19.4 +10.6 57 +20 +29 1004.3 972.9
03 21.06 штиль 0 50 км 3/3 1000 м
[Cu med, cong]
+25.0 +6.6 31 +25 +36 комфорт 1002.9 972.0
06 21.06 штиль 0 50 км 6/4 1000 м
[Cu med, cong Ac trans Ci sp]
+26.1 +6.7 29 +26 +31 жарко 1001.3 970.6
09 21.06 З 1 50 км {ливн. осадки} 10/10 600 м
[Cb cap]
+23.1 +12.0 50 +26 +26 жарко 1001.2 970.3 +28.2 0.1
12 21.06 штиль 0 50 км {ливн. осадки} 9/8 600 м
[Cb cap Ci sp]
+19.4 +11.6 61 +20 +21 1003.6 971.6
15 21.06 штиль 0 50 км 3/3 1000 м
[Sc]
+11.4 +8.4 82 +11 +11 1004.6 972.3
18 21.06 штиль 0 50 км ясно +6.0 +4.4 89 +5 +5 1006.5 973.5
21 21.06 штиль 0 50 км ясно +14.3 +9.0 70 +14 +18 1006.6 974.6 +5.3
00 22.06 штиль 0 50 км ясно +20.5 +10.6 53 +22 +34 комфорт 1005.5 974.2
03 22.06 СВ 2 50 км 4/4 1000 м
[Cu hum]
+27.0 +9.3 33 +27 +34 жарко 1003.9 973.3
06 22.06 СЗ 1 50 км 6/4 1000 м
[Cu med, cong Ci fib]
+27.7 +6.0 25 +27 +32 жарко 1003.5 973.0
09 22.06 СЗ 3 50 км 3/1 1000 м
[Cu hum Ci fib]
+27.3 +4.2 23 +26 +28 жарко 1003.5 972.9 +31.9
12 22.06 З 1 50 км 3/1 1000 м
[Cu hum Ci fib]
+24.3 +6.6 32 +24 +25 комфорт 1005.0 973.8
15 22.06 штиль 0 50 км ясно +10.0 +5.4 73 +9 +9 1007.8 975.2
18 22.06 штиль 0 50 км ясно +6.3 +3.2 81 +5 +6 1009.7 976.6
21 22.06 ЮВ 1 50 км ясно +16.1 +6.5 53 +17 +21 1009.1 977.8 +6.0
00 23.06 В 1 50 км ясно +23.3 +11.4 47 +26 +36 жарко 1008.9 977.8
03 23.06 СЗ 1 50 км 1/1 1000 м
[Cu hum]
+26.8 +9.5 34 +27 +40 жарко 1007.7 977.0
06 23.06 СЗ 2 50 км ясно +27.7 +3.3 21 +26 +35 жарко 1007.2 976.6
09 23.06 СЗ 3 50 км 3/0
[Ci sp]
+27.9 +1.6 18 +26 +28 жарко 1006.7 976.1 +28.3
12 23.06 З 1 50 км 3/0
[Ci fib]
+24.3 +6.3 31 +24 +25 комфорт 1007.3 976.2
15 23.06 штиль 0 50 км 1/0
[Ci sp]
+9.7 +6.3 79 +9 +9 1009.3 976.7
18 23.06 штиль 0 50 км ясно +5.4 +4.0 91 +4 +5 1011.0 977.7
21 23.06 штиль 0 50 км ясно +15.9 +8.2 60 +16 +20 1009.7 977.7 +5.1
00 24.06 штиль 0 50 км ясно +23.0 +10.5 45 +25 +37 комфорт 1008.5 977.4

 

Местоположение метеостанции Усть-Чаркы (Якутия, Россия): широта 66.80 долгота 136.60 высота над уровнем моря 274 м.

В архиве по умолчанию представлена погода в Усть-Чарках за последнюю неделю. Архивные данные за месяц целиком и за предыдущие месяцы, начиная с января 2011 года, Вы можете получить, выбрав интересующий диапазон дат из раскрывающегося списка и нажав кнопку "Ввод!".


*Определитесь, кто Вы:
робот инопланетянин человек

Внимание! Время в таблицах - всемирное. Для получения местного времени необходимо прибавить поправку, которая в Усть-Чарках равна 10 ч.

Смотрите также архив погоды в соседних городах и на ближайших метеорологических станциях:

Погода в Батагае (Якутия, Россия) (128 км)
Погода в Верхоянске (Якутия, Россия) (162 км)
Погода в Иэме (Якутия, Россия) (171 км)
Погода в Екюччю (Якутия, Россия) (219 км)
Погода в Батагай-Алыте (Якутия, Россия) (288 км)
Погода в Усть-Моме (Якутия, Россия) (294 км)
Погода в Депутатском (Якутия, Россия) (316 км)
Погода в Томпо (Якутия, Россия) (319 км)
Погода в Себян-Кюеле (Якутия, Россия) (341 км)
Погода в Усть-Куйге (Якутия, Россия) (358 км)

Пояснения к столбцам:

Ветер - указаны скорость ветра в м/с - средняя за 10 мин, порывы в срок и между сроками (в фигурных скобках) и направление, откуда дует ветер: С - северный, СВ - северо-восточный, В - восточный, ЮВ - юго-восточный, Ю - южный, ЮЗ - юго-западный, З - западный, СЗ - северо-западный.
Видимость - горизонтальная дальность видимости в метрах или километрах. При видимости от 1 до 10 км при отсутствии осадков обычно наблюдается дымка, при ухудшении видимости до 1 км и менее - туман. В сухую погоду видимость может ухудшаться дымом, пылью или мглою.
Явления - указаны атмосферные явления, наблюдавшиеся в срок или в последний час перед сроком; фигурными скобками обозначены явления, наблюдавшиеся между сроками (за 1-3 часа до срока); квадратными скобками обозначены град или гололедные отложения с указанием их диаметра в мм.
Облачность - указаны через наклонную черту общая и нижняя облачность в баллах и высота нижней границы облаков в метрах; квадратными скобками обозначены формы облаков: Ci - перистые, Cs - перисто-слоистые, Cc - перисто-кучевые, Ac - высококучевые, As - высокослоистые, Sc - слоисто-кучевые, Ns - слоисто-дождевые, Cu - кучевые, Cb - кучево-дождевые. Подробнее классификацию облаков см. в Атласе облаков (PDF).
T - Температура воздуха - температура, измеренная на высоте 2 м над землей.
Td - Температура точки росы - температура, при понижении до которой содержащийся в воздухе водяной пар достигнет насыщения.
f - Относительная влажность воздуха - влажноcть воздуха, измеренная на высоте 2 м над землей.
Te - Эффективная температура - температура, которую ощущает одетый по сезону человек в тени. Характеристика душности погоды. При расчете учитывается влияние влажности воздуха и скорости ветра на теплоощущения человека.
Tes - Эффективная температура на солнце - температура, которую ощущает человек, с поправкой на солнечный нагрев. Характеристика знойности погоды. Зависит от высоты солнца над горизонтом, облачности и скорости ветра. Ночью, в пасмурную погоду, а также при ветре 12 м/с и более поправка равна нулю.
P - Атмосферное давление - приведенное к уровню моря атмосферное давление.
Po - Атмосферное давление - измеренное на уровне метеостанции атмосферное давление.
Tmin - Минимальная температура - минимум температуры воздуха на высоте 2 м над землей.
Tmax - Максимальная температура - максимум температуры воздуха на высоте 2 м над землей.
R - Количество осадков - Количество выпавших осадков за период времени, мм. При наведении курсора мыши на число - период времени, за который выпало указанное количество осадков.
R24 - Количество осадков - Количество выпавших осадков за 24 часа, мм.
S - Снежный покров - Высота снежного покрова, см. При наведении курсора мыши на число - состояние снежного покрова и степень покрытия местности в баллах.